User: anonymous   Login
Location: Unspecified
(0.0000°N, 0.0000°E)
Time: 21:52:34
(UTC+00:00)
Language:

ETS 8 - Orbit

View from above orbital plane
View from above orbital plane
View from above satellite
View from above satellite

Ground track
Ground track

The orbit data is extracted from the following two-line orbital elements,

1 29656U 06059A   14330.58283672 -.00000239  00000-0  00000+0 0  5552
2 29656 003.8386 065.3825 0004444 183.0728 172.5588 01.00273229 29117
Epoch (UTC): 26 November 2014 13:59:17
Eccentricity: 0.0004444
inclination: 3.8386°
perigee height: 35767 km
apogee height: 35804 km
right ascension of ascending node: 65.3825°
argument of perigee: 183.0728°
revolutions per day: 1.00273229
mean anomaly at epoch: 172.5588°
orbit number at epoch: 2911

The dashed part of the orbit path shows where the satellite is in the earth's shadow,  

DLR